SCP
0 0 0 0 0 0 0 0 0 0 0 0 0 0 0 0 0 0 0 0 0 0
0 0 0 0 0 0 0 0 0 0 0 0 0 0 0 0 0 0 0 0 0 0
0 0 0 0 0 0 0 0 0 0 0 0 0 0 0 0 0 0 0 0 0 0
0 0 0 0 0 0 0 0 0 0 0 0 0 0 0 0 0 0 0 0 0 0
0 0 0 0 0 0 0 0 0 0 0 0 0 0 0 0 0 0 0 0 0 0
0 0 0 0 0 0 0 0 0 0 0 0 0 0 0 0 0 0 0 0 0 0
0 0 0 0 0 0 0 0 0 0 0 0 0 0 0 0 0 0 0 0 0 0
0 0 0 0 0 0 0 0 0 0 0 0 0 0 0 0 0 0 0 0 0 0
0 0 0 0 0 0 0 0 0 0 0 0 0 0 0 0 0 0 0 0 0 0
0 0 0 0 0 0 0 0 0 0 0 0 0 0 0 0 0 0 0 0 0 0
0 0 0 0 0 0 0 0 0 0 0 0 0 0 0 0 0 0 0 0 0 0
0 0 0 0 0 0 0 0 0 0 0 0 0 0 0 0 0 0 0 0 0 0
0 0 0 0 0 0 0 0 0 0 0 0 0 0 0 0 0 0 0 0 0 0
0 0 0 0 0 0 0 0 0 0 0 0 0 0 0 0 0 0 0 0 0 0
Wind_Speed_500mb
71 70 65 67 64 60 59 54 50 47 46 49 51 53 56 59 63 67 67 68 73 75
71 68 66 66 62 60 58 55 52 49 47 44 45 47 48 52 54 55 58 61 67 77
72 69 68 68 65 62 58 54 52 50 48 45 42 43 46 50 52 54 57 60 63 65
63 62 63 64 62 62 59 57 54 51 47 45 46 46 52 51 51 55 57 60 60 61
52 54 57 58 58 57 57 55 53 50 48 48 47 49 51 51 50 53 56 53 55 50
45 47 49 50 50 51 53 52 50 44 42 43 45 48 51 51 46 38 43 43 51 35
36 39 42 43 44 45 46 47 46 44 40 43 39 36 41 44 49 56 61 41 45 46
30 31 31 31 29 30 31 33 34 33 33 33 34 39 41 43 48 41 32 38 44 46
22 21 22 23 23 22 21 22 24 25 25 29 33 36 36 33 30 30 33 34 33 33
23 24 24 22 21 20 21 21 22 22 23 25 26 27 30 31 32 31 27 19 15 14
26 25 24 23 20 16 15 14 13 12 13 11 9 4 1 4 8 7 8 9 6 9
30 29 26 21 15 12 11 9 7 3 3 4 3 1 2 3 3 1 4 9 13 12
34 30 26 20 14 11 11 10 7 8 7 1 3 4 2 6 8 10 13 15 13 11
36 30 24 19 18 18 15 13 13 9 9 7 7 9 13 14 15 15 14 14 12 12
Wind_Direction_500mb
246 248 253 258 262 264 268 271 271 270 272 269 267 268 270 271 271 271 271 270 269 272
247 249 254 258 264 267 268 270 272 273 273 267 266 268 271 273 275 277 278 275 271 270
250 253 256 259 262 267 270 269 269 270 270 269 272 274 274 277 279 277 278 280 281 282
248 252 255 258 261 261 263 265 265 266 268 268 269 268 270 271 273 275 278 280 284 287
243 245 247 251 255 258 261 263 265 264 262 261 264 265 265 266 272 280 282 285 292 292
238 243 249 253 256 258 261 264 266 265 263 262 264 260 272 274 261 273 278 285 287 287
235 241 246 249 253 257 260 262 261 259 255 260 256 250 267 270 276 279 281 273 274 285
224 231 237 243 251 257 261 263 263 262 257 253 253 254 257 266 274 282 278 284 279 280
214 220 227 230 233 240 249 257 262 265 266 264 262 262 265 267 270 272 269 273 277 283
219 222 226 230 236 246 255 262 263 263 261 262 266 268 266 270 271 269 269 265 268 294
224 226 229 233 240 249 250 246 244 253 260 256 259 258 347 332 318 315 287 278 291 330
229 230 232 231 228 220 208 205 220 215 117 98 121 99 109 153 172 154 282 285 295 315
231 231 228 221 212 209 202 185 165 135 135 140 141 128 201 217 263 292 319 313 309 318
227 222 217 211 199 201 185 168 163 165 168 190 210 240 261 275 281 289 275 274 281 307
Wind_Speed_850mb
71 70 65 67 64 60 59 54 50 47 46 49 51 53 56 59 63 67 67 68 73 75
71 68 66 66 62 60 58 55 52 49 47 44 45 47 48 52 54 55 58 61 67 77
72 69 68 68 65 62 58 54 52 50 48 45 42 43 46 50 52 54 57 60 63 65
63 62 63 64 62 62 59 57 54 51 47 45 46 46 52 51 51 55 57 60 60 61
52 54 57 58 58 57 57 55 53 50 48 48 47 49 51 51 50 53 56 53 55 50
45 47 49 50 50 51 53 52 50 44 42 43 45 48 51 51 46 38 43 43 51 35
36 39 42 43 44 45 46 47 46 44 40 43 39 36 41 44 49 56 61 41 45 46
30 31 31 31 29 30 31 33 34 33 33 33 34 39 41 43 48 41 32 38 44 46
22 21 22 23 23 22 21 22 24 25 25 29 33 36 36 33 30 30 33 34 33 33
23 24 24 22 21 20 21 21 22 22 23 25 26 27 30 31 32 31 27 19 15 14
26 25 24 23 20 16 15 14 13 12 13 11 9 4 1 4 8 7 8 9 6 9
30 29 26 21 15 12 11 9 7 3 3 4 3 1 2 3 3 1 4 9 13 12
34 30 26 20 14 11 11 10 7 8 7 1 3 4 2 6 8 10 13 15 13 11
36 30 24 19 18 18 15 13 13 9 9 7 7 9 13 14 15 15 14 14 12 12
Wind_Direction_850mb
246 248 253 258 262 264 268 271 271 270 272 269 267 268 270 271 271 271 271 270 269 272
247 249 254 258 264 267 268 270 272 273 273 267 266 268 271 273 275 277 278 275 271 270
250 253 256 259 262 267 270 269 269 270 270 269 272 274 274 277 279 277 278 280 281 282
248 252 255 258 261 261 263 265 265 266 268 268 269 268 270 271 273 275 278 280 284 287
243 245 247 251 255 258 261 263 265 264 262 261 264 265 265 266 272 280 282 285 292 292
238 243 249 253 256 258 261 264 266 265 263 262 264 260 272 274 261 273 278 285 287 287
235 241 246 249 253 257 260 262 261 259 255 260 256 250 267 270 276 279 281 273 274 285
224 231 237 243 251 257 261 263 263 262 257 253 253 254 257 266 274 282 278 284 279 280
214 220 227 230 233 240 249 257 262 265 266 264 262 262 265 267 270 272 269 273 277 283
219 222 226 230 236 246 255 262 263 263 261 262 266 268 266 270 271 269 269 265 268 294
224 226 229 233 240 249 250 246 244 253 260 256 259 258 347 332 318 315 287 278 291 330
229 230 232 231 228 220 208 205 220 215 117 98 121 99 109 153 172 154 282 285 295 315
231 231 228 221 212 209 202 185 165 135 135 140 141 128 201 217 263 292 319 313 309 318
227 222 217 211 199 201 185 168 163 165 168 190 210 240 261 275 281 289 275 274 281 307